Total_Precipitation_Accumulation
0.00 0.00 0.00 0.00 0.00 0.00 0.01 0.01 0.03 0.07 0.09 0.09 0.09 0.09 0.09 0.10 0.06 0.03 0.01 0.00 0.00 0.00 0.00 0.01 0.01 0.01 0.01 0.01 0.01 0.02 0.02 0.03 0.02 0.00 0.00 0.00 0.01 0.02 0.02 0.01 0.02 0.02 0.01
0.00 0.00 0.00 0.00 0.00 0.00 0.02 0.04 0.05 0.04 0.05 0.06 0.07 0.09 0.07 0.05 0.03 0.01 0.00 0.00 0.00 0.01 0.01 0.02 0.01 0.00 0.00 0.00 0.00 0.00 0.01 0.01 0.03 0.02 0.03 0.04 0.02 0.01 0.00 0.00 0.00 0.00 0.00
0.00 0.00 0.00 0.00 0.00 0.01 0.02 0.04 0.03 0.02 0.01 0.01 0.02 0.03 0.01 0.01 0.00 0.00 0.00 0.00 0.01 0.02 0.02 0.01 0.00 0.00 0.00 0.00 0.00 0.00 0.00 0.01 0.02 0.04 0.03 0.03 0.02 0.00 0.00 0.00 0.00 0.00 0.00
0.00 0.00 0.00 0.00 0.00 0.00 0.00 0.00 0.00 0.00 0.00 0.00 0.00 0.00 0.00 0.00 0.00 0.00 0.00 0.02 0.01 0.01 0.00 0.00 0.00 0.00 0.00 0.00 0.00 0.00 0.00 0.01 0.01 0.01 0.02 0.01 0.00 0.00 0.00 0.00 0.00 0.00 0.00
0.00 0.00 0.00 0.01 0.00 0.00 0.00 0.00 0.00 0.00 0.00 0.01 0.00 0.00 0.00 0.00 0.00 0.00 0.01 0.01 0.00 0.00 0.00 0.00 0.00 0.00 0.00 0.00 0.00 0.00 0.01 0.01 0.01 0.01 0.00 0.00 0.00 0.00 0.00 0.00 0.00 0.00 0.01
0.00 0.00 0.00 0.00 0.01 0.00 0.00 0.00 0.00 0.00 0.00 0.00 0.00 0.00 0.00 0.00 0.00 0.01 0.00 0.00 0.00 0.00 0.00 0.00 0.00 0.00 0.00 0.00 0.00 0.01 0.01 0.01 0.00 0.01 0.01 0.00 0.00 0.00 0.00 0.00 0.00 0.01 0.03
0.00 0.00 0.00 0.00 0.00 0.00 0.00 0.00 0.00 0.00 0.00 0.00 0.00 0.00 0.00 0.00 0.00 0.00 0.00 0.00 0.00 0.00 0.00 0.00 0.00 0.00 0.00 0.00 0.00 0.01 0.01 0.01 0.02 0.01 0.00 0.00 0.00 0.00 0.00 0.00 0.00 0.01 0.04
0.00 0.00 0.00 0.00 0.00 0.01 0.02 0.01 0.01 0.01 0.00 0.00 0.00 0.00 0.00 0.00 0.01 0.01 0.01 0.01 0.01 0.01 0.00 0.00 0.00 0.00 0.00 0.00 0.00 0.00 0.00 0.01 0.01 0.01 0.00 0.00 0.00 0.01 0.00 0.01 0.01 0.02 0.07
0.00 0.00 0.00 0.00 0.00 0.00 0.00 0.01 0.02 0.02 0.01 0.01 0.01 0.01 0.01 0.01 0.04 0.02 0.02 0.01 0.01 0.01 0.01 0.00 0.00 0.00 0.00 0.00 0.00 0.00 0.00 0.00 0.02 0.01 0.01 0.00 0.01 0.01 0.01 0.01 0.01 0.04 0.11
0.00 0.00 0.00 0.00 0.00 0.00 0.00 0.01 0.02 0.01 0.01 0.02 0.02 0.01 0.03 0.03 0.04 0.03 0.02 0.02 0.02 0.02 0.01 0.00 0.00 0.00 0.00 0.00 0.00 0.00 0.00 0.00 0.00 0.00 0.00 0.00 0.00 0.00 0.01 0.00 0.00 0.02 0.06
0.00 0.00 0.00 0.00 0.00 0.00 0.00 0.00 0.01 0.02 0.02 0.03 0.05 0.10 0.07 0.04 0.03 0.04 0.06 0.06 0.03 0.01 0.00 0.00 0.00 0.00 0.00 0.00 0.00 0.00 0.00 0.00 0.00 0.00 0.00 0.00 0.00 0.00 0.00 0.00 0.00 0.01 0.03
0.00 0.00 0.00 0.00 0.00 0.00 0.00 0.01 0.02 0.04 0.06 0.10 0.13 0.12 0.09 0.06 0.07 0.11 0.10 0.04 0.01 0.00 0.00 0.00 0.00 0.00 0.00 0.00 0.00 0.01 0.02 0.01 0.00 0.00 0.01 0.01 0.00 0.01 0.01 0.02 0.02 0.03 0.02
0.00 0.00 0.01 0.00 0.00 0.01 0.02 0.02 0.03 0.04 0.07 0.11 0.12 0.14 0.14 0.14 0.14 0.10 0.04 0.01 0.00 0.00 0.00 0.00 0.00 0.00 0.00 0.00 0.01 0.02 0.02 0.01 0.01 0.01 0.02 0.01 0.01 0.02 0.02 0.04 0.04 0.03 0.04
0.02 0.01 0.01 0.00 0.00 0.00 0.01 0.02 0.04 0.09 0.14 0.18 0.20 0.20 0.17 0.13 0.06 0.02 0.00 0.00 0.00 0.00 0.00 0.01 0.00 0.00 0.00 0.00 0.01 0.01 0.01 0.02 0.02 0.01 0.02 0.02 0.01 0.02 0.02 0.02 0.03 0.05 0.07
0.00 0.00 0.01 0.02 0.02 0.02 0.03 0.06 0.07 0.10 0.14 0.19 0.19 0.15 0.09 0.04 0.02 0.02 0.01 0.00 0.00 0.00 0.00 0.00 0.00 0.00 0.00 0.00 0.00 0.01 0.01 0.03 0.03 0.02 0.03 0.02 0.01 0.02 0.04 0.02 0.01 0.02 0.03
0.02 0.03 0.06 0.07 0.09 0.12 0.15 0.20 0.25 0.28 0.30 0.24 0.17 0.11 0.06 0.02 0.02 0.02 0.02 0.01 0.00 0.00 0.00 0.00 0.00 0.00 0.00 0.01 0.02 0.05 0.06 0.05 0.03 0.03 0.04 0.02 0.02 0.04 0.04 0.03 0.01 0.00 0.01
0.03 0.06 0.14 0.22 0.29 0.36 0.41 0.39 0.36 0.31 0.24 0.15 0.10 0.06 0.02 0.01 0.02 0.03 0.02 0.01 0.00 0.00 0.00 0.00 0.00 0.00 0.00 0.01 0.02 0.05 0.07 0.07 0.07 0.05 0.04 0.04 0.04 0.08 0.10 0.04 0.01 0.01 0.01
0.19 0.25 0.27 0.28 0.27 0.23 0.19 0.16 0.13 0.08 0.06 0.04 0.03 0.02 0.03 0.04 0.04 0.03 0.03 0.02 0.01 0.00 0.00 0.00 0.00 0.00 0.00 0.01 0.03 0.05 0.07 0.09 0.06 0.03 0.04 0.04 0.05 0.07 0.12 0.09 0.03 0.01 0.01
0.24 0.22 0.18 0.14 0.10 0.08 0.05 0.04 0.03 0.02 0.01 0.00 0.01 0.02 0.03 0.05 0.07 0.08 0.06 0.04 0.03 0.00 0.00 0.00 0.00 0.00 0.00 0.00 0.01 0.03 0.05 0.06 0.07 0.06 0.05 0.05 0.06 0.07 0.12 0.12 0.09 0.04 0.01
0.09 0.10 0.10 0.08 0.06 0.04 0.02 0.02 0.01 0.01 0.00 0.00 0.00 0.01 0.05 0.12 0.09 0.07 0.07 0.07 0.05 0.01 0.00 0.00 0.00 0.00 0.00 0.00 0.01 0.01 0.03 0.06 0.05 0.06 0.05 0.05 0.06 0.08 0.10 0.12 0.10 0.07 0.04
0.04 0.03 0.03 0.02 0.01 0.00 0.00 0.00 0.01 0.02 0.02 0.02 0.02 0.04 0.06 0.07 0.08 0.11 0.10 0.07 0.05 0.02 0.00 0.00 0.00 0.00 0.00 0.00 0.00 0.01 0.01 0.02 0.03 0.04 0.06 0.07 0.07 0.07 0.09 0.14 0.13 0.11 0.09
0.00 0.00 0.00 0.00 0.00 0.00 0.00 0.01 0.00 0.01 0.02 0.02 0.01 0.03 0.05 0.03 0.06 0.08 0.07 0.04 0.02 0.01 0.01 0.00 0.00 0.00 0.00 0.00 0.00 0.00 0.01 0.02 0.02 0.04 0.05 0.06 0.07 0.07 0.08 0.12 0.15 0.13 0.13
0.00 0.00 0.00 0.00 0.00 0.00 0.00 0.00 0.00 0.00 0.00 0.00 0.00 0.00 0.01 0.02 0.06 0.07 0.04 0.03 0.02 0.02 0.01 0.00 0.00 0.00 0.00 0.00 0.00 0.00 0.00 0.01 0.01 0.02 0.04 0.06 0.06 0.06 0.06 0.07 0.10 0.13 0.12
0.01 0.00 0.00 0.00 0.00 0.00 0.00 0.00 0.00 0.00 0.00 0.00 0.00 0.01 0.01 0.02 0.03 0.03 0.02 0.02 0.01 0.01 0.00 0.00 0.00 0.00 0.00 0.00 0.00 0.00 0.00 0.00 0.01 0.01 0.02 0.03 0.05 0.10 0.10 0.08 0.08 0.10 0.11
0.01 0.01 0.02 0.01 0.01 0.00 0.00 0.00 0.00 0.00 0.00 0.00 0.01 0.02 0.03 0.02 0.01 0.00 0.00 0.00 0.01 0.02 0.02 0.01 0.02 0.02 0.02 0.02 0.02 0.01 0.02 0.03 0.03 0.03 0.01 0.01 0.02 0.05 0.07 0.08 0.09 0.10 0.11
0.00 0.00 0.00 0.00 0.00 0.00 0.00 0.00 0.00 0.00 0.00 0.00 0.00 0.02 0.04 0.05 0.03 0.00 0.00 0.00 0.02 0.03 0.03 0.02 0.03 0.03 0.03 0.03 0.03 0.04 0.03 0.02 0.03 0.03 0.03 0.02 0.02 0.02 0.04 0.06 0.08 0.09 0.09